FW5963 Weather Reports


time (UTC)temp
C
wind
direction
speed
KPH
gust
KPH
rain 1hr
cm
rain 24hr
cm
rain mn
cm
humidity
%
barometer
mb
20260505065901 13 80 3.2 9.7 0.00 0.00 0.00 65 1009.9
20260505065703 13 80 3.2 9.7 0.00 0.00 0.00 65 1010.0
20260505065606 13 97 3.2 9.7 0.00 0.00 0.00 65 1010.0
20260505065401 13 88 1.6 9.7 0.00 0.00 0.00 64 1010.0
20260505065303 13 89 1.6 6.4 0.00 0.00 0.00 64 1009.9
20260505065205 13 97 1.6 6.4 0.00 0.00 0.00 64 1010.0
20260505065103 13 70 1.6 6.4 0.00 0.00 0.00 64 1010.0
20260505065004 13 98 1.6 6.4 0.00 0.00 0.00 64 1010.0
20260505064902 13 85 1.6 6.4 0.00 0.00 0.00 63 1010.0
20260505064803 13 104 1.6 6.4 0.00 0.00 0.00 63 1010.0
20260505064702 13 103 1.6 6.4 0.00 0.00 0.00 63 1010.1
20260505064602 13 113 1.6 6.4 0.00 0.00 0.00 63 1010.1
20260505064503 13 110 3.2 6.4 0.00 0.00 0.00 63 1010.0
20260505064402 13 111 3.2 6.4 0.00 0.00 0.00 62 1010.0
20260505064302 13 102 3.2 6.4 0.00 0.00 0.00 62 1010.0
20260505064202 13 90 3.2 6.4 0.00 0.00 0.00 62 1010.0
20260505064103 13 59 3.2 9.7 0.00 0.00 0.00 62 1010.0
20260505064004 13 72 3.2 9.7 0.00 0.00 0.00 62 1010.0
20260505063803 13 101 3.2 9.7 0.00 0.00 0.00 62 1010.1
20260505063704 13 105 3.2 9.7 0.00 0.00 0.00 62 1009.9
20260505063504 13 126 3.2 11.3 0.00 0.00 0.00 62 1010.0
20260505063412 13 110 3.2 11.3 0.00 0.00 0.00 62 1010.0
20260505063303 13 85 3.2 11.3 0.00 0.00 0.00 62 1010.0
20260505063202 13 192 3.2 11.3 0.00 0.00 0.00 62 1010.0
20260505063101 13 80 3.2 11.3 0.00 0.00 0.00 62 1010.0
20260505063044 13 90 3.2 11.3 0.00 0.00 0.00 62 1010.0
20260505062933 13 87 3.2 11.3 0.00 0.00 0.00 62 1010.1
20260505062821 13 75 3.2 11.3 0.00 0.00 0.00 62 1010.0
20260505062716 13 112 3.2 12.9 0.00 0.00 0.00 62 1009.9
20260505062622 13 84 3.2 14.5 0.00 0.00 0.00 62 1010.0
20260505062512 13 110 3.2 14.5 0.00 0.00 0.00 62 1009.9
20260505062300 14 117 3.2 14.5 0.00 0.00 0.00 62 1010.0
20260505062200 13 107 3.2 14.5 0.00 0.00 0.00 62 1010.0
20260505062143 13 52 3.2 14.5 0.00 0.00 0.00 62 1010.0
20260505061858 14 87 3.2 14.5 0.00 0.00 0.00 62 1009.9
20260505061802 14 96 3.2 14.5 0.00 0.00 0.00 62 1009.9
20260505061740 14 186 3.2 9.7 0.00 0.00 0.00 62 1009.7
20260505061630 14 69 3.2 9.7 0.00 0.00 0.00 62 1009.7
20260505061520 14 78 3.2 12.9 0.00 0.00 0.00 62 1009.7
20260505061411 14 67 3.2 12.9 0.00 0.00 0.00 62 1009.7
20260505061302 14 186 3.2 12.9 0.00 0.00 0.00 62 1009.7
20260505061159 14 188 3.2 14.5 0.00 0.00 0.00 62 1009.7
20260505061100 14 61 3.2 14.5 0.00 0.00 0.00 62 1009.7
20260505061000 14 73 3.2 14.5 0.00 0.00 0.00 62 1009.7
20260505060840 14 148 3.2 14.5 0.00 0.00 0.00 61 1009.7
20260505060730 14 84 3.2 14.5 0.00 0.00 0.00 61 1009.6
20260505060621 14 116 4.8 14.5 0.00 0.00 0.00 61 1009.7
20260505060511 14 142 4.8 14.5 0.00 0.00 0.00 61 1009.7
20260505060409 14 233 4.8 14.5 0.00 0.00 0.00 61 1009.6
20260505060259 14 115 3.2 12.9 0.00 0.00 0.00 61 1009.6
20260505060201 14 209 3.2 12.9 0.00 0.00 0.00 61 1009.6
20260505060104 14 88 3.2 12.9 0.00 0.00 0.00 61 1009.6
20260505055902 14 98 3.2 12.9 0.00 0.00 0.00 61 1009.6
20260505055803 14 89 3.2 12.9 0.00 0.00 0.00 61 1009.6
20260505055602 13 73 3.2 9.7 0.00 0.00 0.00 61 1009.5
20260505055502 13 107 3.2 9.7 0.00 0.00 0.00 61 1009.5
20260505055403 13 154 3.2 9.7 0.00 0.00 0.00 61 1009.5
20260505055303 13 121 3.2 9.7 0.00 0.00 0.00 61 1009.5
20260505055202 13 293 3.2 9.7 0.00 0.00 0.00 61 1009.4
20260505055102 13 122 3.2 11.3 0.00 0.00 0.00 61 1009.5
20260505055003 13 80 3.2 9.7 0.00 0.00 0.00 61 1009.5
20260505054903 13 148 3.2 8.0 0.00 0.00 0.00 61 1009.4
20260505054802 13 132 3.2 8.0 0.00 0.00 0.00 60 1009.5
20260505054702 13 139 3.2 8.0 0.00 0.00 0.00 60 1009.5
20260505054602 13 77 3.2 8.0 0.00 0.00 0.00 60 1009.4
20260505054503 13 133 3.2 11.3 0.00 0.00 0.00 60 1009.4
20260505054402 13 136 1.6 11.3 0.00 0.00 0.00 59 1009.4
20260505054203 14 155 1.6 11.3 0.00 0.00 0.00 59 1009.3
20260505054102 14 151 1.6 11.3 0.00 0.00 0.00 59 1009.3
20260505054003 13 158 1.6 11.3 0.00 0.00 0.00 59 1009.4
20260505053702 13 149 0.0 11.3 0.00 0.00 0.00 58 1009.2
20260505053602 13 219 0.0 4.8 0.00 0.00 0.00 58 1009.2
20260505053502 13 42 0.0 4.8 0.00 0.00 0.00 58 1009.2
20260505053302 13 175 0.0 1.6 0.00 0.00 0.00 58 1009.1
20260505053202 13 144 0.0 1.6 0.00 0.00 0.00 58 1009.0
20260505053104 13 145 0.0 1.6 0.00 0.00 0.00 58 1009.1
20260505053004 13 94 0.0 0.0 0.00 0.00 0.00 58 1009.1
20260505052903 13 94 0.0 0.0 0.00 0.00 0.00 58 1009.0
20260505052807 13 94 0.0 0.0 0.00 0.00 0.00 58 1009.0
20260505052601 13 94 0.0 0.0 0.00 0.00 0.00 57 1008.9
20260505052502 13 93 0.0 0.0 0.00 0.00 0.00 57 1009.1
20260505052404 13 93 0.0 0.0 0.00 0.00 0.00 57 1009.0
20260505052304 13 93 0.0 0.0 0.00 0.00 0.00 57 1009.0
20260505052204 13 93 0.0 0.0 0.00 0.00 0.00 57 1008.9
20260505052103 13 93 0.0 0.0 0.00 0.00 0.00 57 1008.9
20260505051904 13 93 0.0 0.0 0.00 0.00 0.00 57 1008.9
20260505051804 14 93 0.0 0.0 0.00 0.00 0.00 56 1008.9
20260505051703 14 94 0.0 0.0 0.00 0.00 0.00 56 1008.8
20260505051602 14 93 0.0 0.0 0.00 0.00 0.00 56 1008.9
20260505051402 14 94 0.0 0.0 0.00 0.00 0.00 56 1008.9
20260505051302 14 93 0.0 0.0 0.00 0.00 0.00 56 1008.8
20260505051203 14 94 0.0 0.0 0.00 0.00 0.00 56 1008.9
20260505051103 14 93 0.0 0.0 0.00 0.00 0.00 56 1008.9
20260505051004 14 94 0.0 0.0 0.00 0.00 0.00 56 1008.9
20260505050903 14 93 0.0 0.0 0.00 0.00 0.00 55 1008.9
20260505050802 14 93 0.0 0.0 0.00 0.00 0.00 55 1008.9
20260505050702 15 93 0.0 0.0 0.00 0.00 0.00 55 1008.8
20260505050602 15 94 0.0 1.6 0.00 0.00 0.00 55 1008.9
20260505050502 15 93 0.0 3.2 0.00 0.00 0.00 55 1008.9
20260505050403 15 93 0.0 3.2 0.00 0.00 0.00 55 1008.8
20260505050304 15 94 0.0 3.2 0.00 0.00 0.00 55 1008.7
20260505041702 16 38 3.2 12.9 0.00 0.00 0.00 49 1008.4
20260505041602 16 156 3.2 12.9 0.00 0.00 0.00 49 1008.3
20260505041502 16 200 4.8 12.9 0.00 0.00 0.00 49 1008.3
20260505041402 16 90 4.8 12.9 0.00 0.00 0.00 49 1008.2
20260505041302 16 64 3.2 12.9 0.00 0.00 0.00 50 1008.3
20260505041202 16 125 3.2 12.9 0.00 0.00 0.00 50 1008.2
20260505041102 16 82 3.2 12.9 0.00 0.00 0.00 50 1008.2
20260505041004 16 61 3.2 12.9 0.00 0.00 0.00 50 1008.1
20260505040903 16 37 3.2 12.9 0.00 0.00 0.00 50 1008.1
20260505040802 16 103 1.6 9.7 0.00 0.00 0.00 49 1008.1
20260505040702 16 88 3.2 9.7 0.00 0.00 0.00 49 1008.2
20260505040602 16 55 3.2 9.7 0.00 0.00 0.00 49 1008.1
20260505040403 16 62 1.6 9.7 0.00 0.00 0.00 48 1008.1
20260505040303 16 85 1.6 9.7 0.00 0.00 0.00 48 1008.1
20260505040203 16 83 1.6 4.8 0.00 0.00 0.00 48 1008.1
20260505035903 16 113 1.6 4.8 0.00 0.00 0.00 47 1008.1
20260505035802 16 100 1.6 4.8 0.00 0.00 0.00 47 1008.1
20260505035702 16 103 1.6 4.8 0.00 0.00 0.00 47 1008.0
20260505035603 16 115 1.6 4.8 0.00 0.00 0.00 47 1008.0
20260505035502 16 107 1.6 4.8 0.00 0.00 0.00 47 1008.0
20260505035402 16 57 1.6 4.8 0.00 0.00 0.00 47 1008.0
20260505035202 16 82 1.6 4.8 0.00 0.00 0.00 47 1007.9
20260505035102 16 84 1.6 4.8 0.00 0.00 0.00 48 1007.9
20260505035004 16 97 1.6 4.8 0.00 0.00 0.00 47 1007.9
20260505034902 16 102 1.6 4.8 0.00 0.00 0.00 47 1007.8
20260505034702 16 101 0.0 3.2 0.00 0.00 0.00 48 1007.8
20260505034503 16 86 0.0 4.8 0.00 0.00 0.00 47 1007.8
20260505034402 16 87 0.0 4.8 0.00 0.00 0.00 47 1007.8
20260505034302 16 65 0.0 4.8 0.00 0.00 0.00 47 1007.8
20260505034202 16 82 0.0 4.8 0.00 0.00 0.00 47 1007.8
20260505034102 16 86 0.0 4.8 0.00 0.00 0.00 47 1007.7
20260505034003 16 97 0.0 4.8 0.00 0.00 0.00 47 1007.7
20260505033902 16 146 0.0 4.8 0.00 0.00 0.00 47 1007.7
20260505033802 16 182 1.6 4.8 0.00 0.00 0.00 47 1007.7
20260505033702 16 164 0.0 4.8 0.00 0.00 0.00 47 1007.7
20260505033602 16 87 1.6 4.8 0.00 0.00 0.00 47 1007.7
20260505033502 16 82 1.6 4.8 0.00 0.00 0.00 47 1007.7
20260505033401 16 134 1.6 6.4 0.00 0.00 0.00 47 1007.7
20260505033202 16 86 1.6 8.0 0.00 0.00 0.00 47 1007.6
20260505033103 16 95 1.6 8.0 0.00 0.00 0.00 46 1007.6
20260505033004 16 77 1.6 8.0 0.00 0.00 0.00 46 1007.6
20260505032902 16 107 1.6 8.0 0.00 0.00 0.00 46 1007.6
20260505032802 16 195 0.0 8.0 0.00 0.00 0.00 46 1007.5
20260505032702 16 107 0.0 8.0 0.00 0.00 0.00 46 1007.5
20260505032502 16 258 0.0 8.0 0.00 0.00 0.00 46 1007.5
20260505032304 16 67 0.0 0.0 0.00 0.00 0.00 45 1007.4
20260505032202 16 67 0.0 0.0 0.00 0.00 0.00 45 1007.5
20260505031901 16 66 0.0 0.0 0.00 0.00 0.00 44 1007.3
20260505031802 16 66 0.0 0.0 0.00 0.00 0.00 44 1007.4
20260505031702 16 66 0.0 0.0 0.00 0.00 0.00 44 1007.3
20260505031602 16 66 0.0 0.0 0.00 0.00 0.00 44 1007.4
20260505031502 16 66 0.0 0.0 0.00 0.00 0.00 44 1007.3
20260505031403 16 66 0.0 0.0 0.00 0.00 0.00 44 1007.3
20260505031303 16 66 0.0 0.0 0.00 0.00 0.00 43 1007.2
20260505031203 16 66 0.0 0.0 0.00 0.00 0.00 43 1007.2
20260505031103 16 66 0.0 1.6 0.00 0.00 0.00 43 1007.2
20260505030903 16 66 0.0 1.6 0.00 0.00 0.00 42 1007.2
20260505030803 17 66 0.0 1.6 0.00 0.00 0.00 42 1007.1
20260505030702 17 66 0.0 1.6 0.00 0.00 0.00 42 1007.2
20260505030601 17 66 0.0 1.6 0.00 0.00 0.00 42 1007.1
20260505030442 17 66 0.0 1.6 0.00 0.00 0.00 42 1007.1
20260505030332 17 66 0.0 1.6 0.00 0.00 0.00 42 1007.0
20260505030223 17 66 0.0 0.0 0.00 0.00 0.00 42 1007.0
20260505030111 17 66 0.0 0.0 0.00 0.00 0.00 42 1007.0
20260505030004 17 66 0.0 1.6 0.00 0.00 0.00 42 1007.0
20260505025901 17 66 0.0 1.6 0.00 0.00 0.00 42 1007.0
20260505025800 17 66 0.0 1.6 0.00 0.00 0.00 41 1007.0
20260505025742 17 66 0.0 1.6 0.00 0.00 0.00 41 1007.0
20260505025632 17 66 0.0 1.6 0.00 0.00 0.00 42 1007.0
20260505025521 17 66 0.0 1.6 0.00 0.00 0.00 42 1006.9
20260505025413 17 66 0.0 1.6 0.00 0.00 0.00 41 1006.9
20260505025003 17 66 0.0 1.6 0.00 0.00 0.00 41 1006.9
20260505024802 17 158 0.0 1.6 0.00 0.00 0.00 40 1006.9
20260505024702 17 158 0.0 1.6 0.00 0.00 0.00 40 1006.9
20260505024603 17 158 0.0 1.6 0.00 0.00 0.00 40 1006.9
20260505024504 17 158 0.0 1.6 0.00 0.00 0.00 40 1006.8
20260505024403 17 158 0.0 1.6 0.00 0.00 0.00 40 1006.8
20260505024302 17 156 0.0 1.6 0.00 0.00 0.00 40 1006.9
20260505024202 17 163 0.0 1.6 0.00 0.00 0.00 40 1006.8
20260505024102 18 163 0.0 3.2 0.00 0.00 0.00 39 1006.8
20260505024003 18 163 0.0 3.2 0.00 0.00 0.00 39 1006.8
20260505023902 18 163 0.0 3.2 0.00 0.00 0.00 39 1006.7
20260505023803 18 163 0.0 3.2 0.00 0.00 0.00 39 1006.7
20260505023701 18 163 0.0 3.2 0.00 0.00 0.00 39 1006.8
20260505023602 18 163 0.0 3.2 0.00 0.00 0.00 39 1006.8
20260505023502 18 128 0.0 3.2 0.00 0.00 0.00 39 1006.8
20260505023302 18 144 0.0 3.2 0.00 0.00 0.00 39 1006.7
20260505023202 18 145 0.0 1.6 0.00 0.00 0.00 38 1006.8
20260505023002 18 64 0.0 1.6 0.00 0.00 0.00 38 1006.7
20260505022902 18 64 0.0 1.6 0.00 0.00 0.00 38 1006.8
20260505022802 18 63 0.0 3.2 0.00 0.00 0.00 38 1006.7
20260505022702 18 63 0.0 3.2 0.00 0.00 0.00 38 1006.8
20260505022602 18 61 0.0 3.2 0.00 0.00 0.00 38 1006.8
20260505022402 18 92 0.0 3.2 0.00 0.00 0.00 38 1006.8
20260505022304 18 92 0.0 3.2 0.00 0.00 0.00 38 1006.8
20260505022202 18 113 0.0 3.2 0.00 0.00 0.00 38 1006.7
20260505022102 19 141 0.0 3.2 0.00 0.00 0.00 37 1006.7
20260505022005 19 141 1.6 3.2 0.00 0.00 0.00 37 1006.6
20260505021902 19 92 1.6 3.2 0.00 0.00 0.00 37 1006.7
20260505021701 19 116 1.6 11.3 0.00 0.00 0.00 37 1006.7
20260505021602 19 157 1.6 11.3 0.00 0.00 0.00 37 1006.7
20260505021403 19 143 1.6 11.3 0.00 0.00 0.00 37 1006.7
20260505021302 19 168 1.6 11.3 0.00 0.00 0.00 37 1006.7
20260505021202 19 150 1.6 11.3 0.00 0.00 0.00 37 1006.7
20260505021102 19 100 1.6 11.3 0.00 0.00 0.00 37 1006.7
20260505021008 20 132 1.6 11.3 0.00 0.00 0.00 37 1006.7
20260505020903 20 147 1.6 4.8 0.00 0.00 0.00 37 1006.7
20260505020802 20 137 1.6 4.8 0.00 0.00 0.00 37 1006.6
20260505020702 20 137 1.6 6.4 0.00 0.00 0.00 37 1006.7
20260505020603 20 176 1.6 4.8 0.00 0.00 0.00 37 1006.7
20260505020502 20 144 1.6 6.4 0.00 0.00 0.00 37 1006.7
20260505020402 20 138 1.6 6.4 0.00 0.00 0.00 37 1006.6
20260505020302 20 125 1.6 6.4 0.00 0.00 0.00 37 1006.6
20260505020206 20 170 1.6 6.4 0.00 0.00 0.00 36 1006.6
20260505020111 20 169 1.6 6.4 0.00 0.00 0.00 36 1006.7
20260505020013 20 157 1.6 6.4 0.00 0.00 0.00 36 1006.7
20260505015902 20 132 1.6 6.4 0.00 0.00 0.00 36 1006.7
20260505015802 20 181 1.6 6.4 0.00 0.00 0.00 37 1006.6
20260505015702 20 140 1.6 6.4 0.00 0.00 0.00 36 1006.6
20260505015602 20 142 1.6 6.4 0.00 0.00 0.00 36 1006.7
20260505015502 20 143 1.6 6.4 0.00 0.00 0.00 36 1006.6
20260505015402 20 144 1.6 6.4 0.00 0.00 0.00 35 1006.6
20260505015303 20 136 1.6 6.4 0.00 0.00 0.00 35 1006.6
20260505015206 20 122 1.6 8.0 0.00 0.00 0.00 35 1006.7
20260505015112 21 122 1.6 8.0 0.00 0.00 0.00 35 1006.6
20260505015009 21 116 1.6 8.0 0.00 0.00 0.00 35 1006.6
20260505014902 21 136 1.6 8.0 0.00 0.00 0.00 34 1006.6
20260505014802 21 123 1.6 8.0 0.00 0.00 0.00 34 1006.6
20260505014702 21 167 1.6 8.0 0.00 0.00 0.00 34 1006.6
20260505014602 21 124 1.6 8.0 0.00 0.00 0.00 34 1006.6
20260505014502 21 107 1.6 8.0 0.00 0.00 0.00 34 1006.6
20260505014401 21 134 1.6 11.3 0.00 0.00 0.00 34 1006.6
20260505014301 21 175 1.6 11.3 0.00 0.00 0.00 34 1006.5
20260505014202 21 166 1.6 11.3 0.00 0.00 0.00 34 1006.6
20260505014103 21 166 1.6 11.3 0.00 0.00 0.00 34 1006.5
20260505013802 21 161 1.6 11.3 0.00 0.00 0.00 33 1006.6
20260505013703 21 133 1.6 11.3 0.00 0.00 0.00 33 1006.7
20260505013603 21 210 1.6 11.3 0.00 0.00 0.00 33 1006.6
20260505013302 21 160 1.6 6.4 0.00 0.00 0.00 33 1006.6
20260505013103 21 60 1.6 6.4 0.00 0.00 0.00 32 1006.5
20260505013005 21 115 1.6 6.4 0.00 0.00 0.00 32 1006.6
20260505012903 21 141 1.6 6.4 0.00 0.00 0.00 32 1006.6
20260505012803 21 219 1.6 6.4 0.00 0.00 0.00 32 1006.5
20260505012503 22 142 1.6 6.4 0.00 0.00 0.00 31 1006.6
20260505012404 22 147 3.2 9.7 0.00 0.00 0.00 31 1006.5
20260505012304 22 84 3.2 11.3 0.00 0.00 0.00 31 1006.6
20260505012203 22 67 3.2 11.3 0.00 0.00 0.00 31 1006.6
20260505012101 22 164 3.2 11.3 0.00 0.00 0.00 31 1006.6
20260505012051 22 120 3.2 11.3 0.00 0.00 0.00 31 1006.6
20260505011936 22 110 3.2 11.3 0.00 0.00 0.00 31 1006.7
20260505011827 22 142 3.2 11.3 0.00 0.00 0.00 31 1006.6
20260505011438 22 93 3.2 11.3 0.00 0.00 0.00 30 1006.7
20260505011329 22 138 3.2 11.3 0.00 0.00 0.00 30 1006.7
20260505011222 22 161 1.6 11.3 0.00 0.00 0.00 30 1006.7
20260505011113 22 75 3.2 11.3 0.00 0.00 0.00 30 1006.8
20260505011015 22 70 3.2 11.3 0.00 0.00 0.00 31 1006.8
20260505010901 22 159 3.2 11.3 0.00 0.00 0.00 30 1006.7
20260505010800 22 158 3.2 12.9 0.00 0.00 0.00 31 1006.8
20260505010505 22 102 3.2 12.9 0.00 0.00 0.00 32 1006.8
20260505010304 22 146 3.2 12.9 0.00 0.00 0.00 31 1006.9
20260505010109 22 117 3.2 12.9 0.00 0.00 0.00 30 1006.8
20260505010011 23 129 3.2 11.3 0.00 0.00 0.00 30 1006.8
20260505005904 23 247 3.2 9.7 0.00 0.00 0.00 30 1006.9
20260505005803 23 132 3.2 9.7 0.00 0.00 0.00 31 1006.8
20260505005705 23 161 1.6 9.7 0.00 0.00 0.00 30 1006.8
20260505005503 23 145 1.6 9.7 0.00 0.00 0.00 29 1006.8
20260505005404 23 135 1.6 6.4 0.00 0.00 0.00 30 1006.8
20260505005304 23 107 1.6 6.4 0.00 0.00 0.00 30 1006.8
20260505005204 23 101 1.6 6.4 0.00 0.00 0.00 30 1006.9
20260505005109 23 82 3.2 6.4 0.00 0.00 0.00 30 1006.9
20260505005013 23 54 3.2 6.4 0.00 0.00 0.00 29 1006.9
20260505004903 23 151 3.2 9.7 0.00 0.00 0.00 29 1006.9
20260505004804 23 246 3.2 9.7 0.00 0.00 0.00 30 1006.9
20260505004704 23 157 3.2 9.7 0.00 0.00 0.00 30 1007.0
20260505004604 23 69 3.2 9.7 0.00 0.00 0.00 30 1007.0
20260505004504 23 71 3.2 9.7 0.00 0.00 0.00 31 1007.0
20260505004403 23 143 3.2 9.7 0.00 0.00 0.00 30 1007.0
20260505004204 23 137 3.2 9.7 0.00 0.00 0.00 29 1007.0
20260505003904 23 103 3.2 9.7 0.00 0.00 0.00 30 1007.1
20260505003704 23 98 3.2 11.3 0.00 0.00 0.00 30 1007.0
20260505003504 23 168 3.2 11.3 0.00 0.00 0.00 32 1007.0
20260505003404 23 102 3.2 11.3 0.00 0.00 0.00 31 1007.0
20260505003204 23 178 3.2 12.9 0.00 0.00 0.00 31 1007.1
20260505003103 22 157 3.2 12.9 0.00 0.00 0.00 31 1007.0
20260505003009 22 158 3.2 12.9 0.00 0.00 0.00 31 1007.1
20260505002704 22 15 3.2 12.9 0.00 0.00 0.00 32 1007.1
20260505002603 22 92 3.2 12.9 0.00 0.00 0.00 31 1007.0
20260505002504 22 96 3.2 12.9 0.00 0.00 0.00 31 1007.0
20260505002404 22 141 4.8 12.9 0.00 0.00 0.00 31 1007.0
20260505002304 22 105 4.8 12.9 0.00 0.00 0.00 31 1007.0
20260505002204 22 136 4.8 12.9 0.00 0.00 0.00 31 1007.1
20260505002104 22 167 4.8 12.9 0.00 0.00 0.00 32 1007.0
20260505002010 22 126 4.8 12.9 0.00 0.00 0.00 33 1007.0
20260505001904 22 170 3.2 12.9 0.00 0.00 0.00 32 1007.1
20260505001804 22 250 3.2 12.9 0.00 0.00 0.00 32 1007.1
20260505001703 22 211 4.8 12.9 0.00 0.00 0.00 32 1007.0
20260505001604 22 144 4.8 12.9 0.00 0.00 0.00 32 1007.0
20260505001504 22 101 3.2 11.3 0.00 0.00 0.00 32 1007.1
20260505001404 22 41 3.2 11.3 0.00 0.00 0.00 32 1007.0
20260505001304 22 81 3.2 11.3 0.00 0.00 0.00 32 1007.1
20260505001203 22 167 4.8 11.3 0.00 0.00 0.00 32 1007.0
20260505001109 22 103 4.8 11.3 0.00 0.00 0.00 33 1007.1
20260505001012 22 213 4.8 11.3 0.00 0.00 0.00 32 1007.1
20260505000804 22 204 3.2 11.3 0.00 0.00 0.00 32 1007.2
20260505000704 22 26 4.8 11.3 0.00 0.00 0.00 31 1007.1
20260505000604 22 78 4.8 14.5 0.00 0.00 0.00 31 1007.2
20260505000503 22 217 4.8 20.9 0.00 0.00 0.00 31 1007.2
20260505000405 22 127 4.8 20.9 0.00 0.00 0.00 31 1007.2
20260505000304 22 134 4.8 20.9 0.00 0.00 0.00 32 1007.2
20260505000204 22 154 4.8 20.9 0.00 0.00 0.00 33 1007.2
20260505000104 22 105 4.8 20.9 0.00 0.00 0.00 32 1007.2
20260505000006 23 192 4.8 20.9 0.00 0.00 0.00 32 1007.2
20260504235803 23 157 6.4 20.9 0.00 0.00 0.00 30 1007.2
20260504235703 23 150 6.4 20.9 0.00 0.00 0.00 29 1007.3
20260504235604 23 173 4.8 17.7 0.00 0.00 0.00 30 1007.2
20260504235404 23 146 6.4 16.1 0.00 0.00 0.00 30 1007.4
20260504235304 23 130 6.4 16.1 0.00 0.00 0.00 29 1007.3
20260504235204 23 198 6.4 17.7 0.00 0.00 0.00 29 1007.4
20260504235104 23 243 6.4 17.7 0.00 0.00 0.00 29 1007.3
20260504235007 23 188 6.4 17.7 0.00 0.00 0.00 29 1007.3
20260504234804 23 112 6.4 17.7 0.00 0.00 0.00 30 1007.3
20260504234604 23 304 8.0 17.7 0.00 0.00 0.00 30 1007.3
20260504234504 23 124 6.4 17.7 0.00 0.00 0.00 30 1007.3
20260504234403 23 184 6.4 17.7 0.00 0.00 0.00 30 1007.4
20260504234304 23 286 6.4 17.7 0.00 0.00 0.00 30 1007.3
20260504234204 23 160 6.4 17.7 0.00 0.00 0.00 30 1007.3
20260504234010 23 219 6.4 17.7 0.00 0.00 0.00 30 1007.3
20260504233804 23 157 6.4 16.1 0.00 0.00 0.00 29 1007.3
20260504233604 23 144 4.8 16.1 0.00 0.00 0.00 28 1007.3
20260504233405 23 218 4.8 16.1 0.00 0.00 0.00 28 1007.4
20260504233304 23 189 4.8 9.7 0.00 0.00 0.00 29 1007.3
20260504233108 23 155 4.8 16.1 0.00 0.00 0.00 29 1007.4
20260504233025 23 155 4.8 16.1 0.00 0.00 0.00 28 1007.3
20260504232911 23 236 4.8 16.1 0.00 0.00 0.00 28 1007.2
20260504232503 23 224 3.2 16.1 0.00 0.00 0.00 30 1007.3
20260504232445 23 248 3.2 16.1 0.00 0.00 0.00 29 1007.2
20260504232233 23 238 3.2 11.3 0.00 0.00 0.00 29 1007.3
20260504232028 23 158 3.2 12.9 0.00 0.00 0.00 29 1007.3
20260504231915 23 213 3.2 12.9 0.00 0.00 0.00 30 1007.4
20260504231809 23 252 3.2 12.9 0.00 0.00 0.00 29 1007.3
20260504231703 23 246 4.8 12.9 0.00 0.00 0.00 29 1007.2
20260504231603 23 148 4.8 12.9 0.00 0.00 0.00 28 1007.3
20260504231302 23 166 4.8 12.9 0.00 0.00 0.00 27 1007.3
20260504231203 23 126 4.8 12.9 0.00 0.00 0.00 27 1007.3
20260504231119 23 290 4.8 12.9 0.00 0.00 0.00 28 1007.3
20260504231002 23 203 4.8 12.9 0.00 0.00 0.00 28 1007.2
20260504230902 23 146 4.8 12.9 0.00 0.00 0.00 27 1007.3
20260504230803 23 171 4.8 12.9 0.00 0.00 0.00 27 1007.3
20260504230702 23 173 3.2 12.9 0.00 0.00 0.00 28 1007.3
20260504230601 23 132 3.2 12.9 0.00 0.00 0.00 28 1007.4
20260504230503 23 158 3.2 12.9 0.00 0.00 0.00 29 1007.4
20260504230303 23 273 4.8 12.9 0.00 0.00 0.00 27 1007.3
20260504230212 23 143 4.8 12.9 0.00 0.00 0.00 27 1007.3
20260504230106 23 242 4.8 12.9 0.00 0.00 0.00 29 1007.4
20260504225909 23 240 4.8 12.9 0.00 0.00 0.00 29 1007.3
20260504225804 23 141 4.8 17.7 0.00 0.00 0.00 28 1007.4
20260504225704 23 163 4.8 17.7 0.00 0.00 0.00 30 1007.4
20260504225503 23 177 6.4 17.7 0.00 0.00 0.00 29 1007.4
20260504225403 23 196 6.4 17.7 0.00 0.00 0.00 30 1007.4
20260504225304 23 106 6.4 17.7 0.00 0.00 0.00 29 1007.4
20260504225204 23 163 6.4 17.7 0.00 0.00 0.00 29 1007.4
20260504225104 23 162 6.4 17.7 0.00 0.00 0.00 29 1007.4
20260504225004 23 143 6.4 17.7 0.00 0.00 0.00 28 1007.4
20260504224903 23 124 6.4 14.5 0.00 0.00 0.00 30 1007.4
20260504224803 23 221 4.8 14.5 0.00 0.00 0.00 29 1007.2
20260504224704 23 214 6.4 14.5 0.00 0.00 0.00 30 1007.3
20260504224603 23 213 6.4 12.9 0.00 0.00 0.00 30 1007.4
20260504224504 23 174 6.4 14.5 0.00 0.00 0.00 30 1007.3
20260504224403 23 178 6.4 12.9 0.00 0.00 0.00 30 1007.3
20260504224303 23 202 6.4 17.7 0.00 0.00 0.00 30 1007.4
20260504224204 23 246 6.4 17.7 0.00 0.00 0.00 30 1007.4
20260504224103 23 113 6.4 17.7 0.00 0.00 0.00 31 1007.4
20260504224004 23 164 6.4 17.7 0.00 0.00 0.00 31 1007.3
20260504223909 23 175 6.4 17.7 0.00 0.00 0.00 31 1007.3
20260504223803 23 143 6.4 17.7 0.00 0.00 0.00 30 1007.3
20260504223704 23 138 6.4 17.7 0.00 0.00 0.00 31 1007.3
20260504223603 23 190 6.4 17.7 0.00 0.00 0.00 31 1007.3
20260504223503 23 147 6.4 17.7 0.00 0.00 0.00 30 1007.4
20260504223405 23 137 6.4 17.7 0.00 0.00 0.00 32 1007.3
20260504223204 23 196 6.4 17.7 0.00 0.00 0.00 31 1007.4
20260504223104 23 211 6.4 19.3 0.00 0.00 0.00 31 1007.3
20260504222904 23 189 6.4 16.1 0.00 0.00 0.00 32 1007.3
20260504222804 23 224 8.0 22.5 0.00 0.00 0.00 32 1007.2
20260504222705 23 244 8.0 22.5 0.00 0.00 0.00 32 1007.3
20260504222604 23 197 8.0 19.3 0.00 0.00 0.00 32 1007.4
20260504222505 23 169 8.0 19.3 0.00 0.00 0.00 32 1007.2
20260504222404 23 152 8.0 19.3 0.00 0.00 0.00 32 1007.3
20260504222305 23 181 8.0 19.3 0.00 0.00 0.00 32 1007.2
20260504222103 23 176 9.7 19.3 0.00 0.00 0.00 31 1007.3
20260504222004 23 138 9.7 19.3 0.00 0.00 0.00 30 1007.2
20260504221903 23 249 9.7 25.7 0.00 0.00 0.00 29 1007.3
20260504221704 23 265 8.0 25.7 0.00 0.00 0.00 31 1007.4
20260504221603 23 153 8.0 25.7 0.00 0.00 0.00 30 1007.3
20260504221404 23 131 8.0 25.7 0.00 0.00 0.00 31 1007.3
20260504221304 23 218 8.0 25.7 0.00 0.00 0.00 30 1007.4
20260504221205 24 241 6.4 25.7 0.00 0.00 0.00 29 1007.4
20260504221105 24 140 6.4 25.7 0.00 0.00 0.00 28 1007.4
20260504221006 24 150 4.8 16.1 0.00 0.00 0.00 27 1007.2
20260504220905 24 251 4.8 16.1 0.00 0.00 0.00 25 1007.4
20260504220804 24 142 4.8 16.1 0.00 0.00 0.00 24 1007.2
20260504220705 24 134 4.8 16.1 0.00 0.00 0.00 25 1007.4
20260504220605 24 194 4.8 12.9 0.00 0.00 0.00 25 1007.3
20260504220504 24 166 4.8 12.9 0.00 0.00 0.00 24 1007.3
20260504220406 24 143 4.8 12.9 0.00 0.00 0.00 23 1007.2
20260504220203 24 48 4.8 12.9 0.00 0.00 0.00 25 1007.4
20260504220007 24 267 4.8 12.9 0.00 0.00 0.00 25 1007.4
20260504215903 24 161 4.8 14.5 0.00 0.00 0.00 24 1007.4
20260504215804 24 184 4.8 14.5 0.00 0.00 0.00 25 1007.4
20260504215704 24 136 4.8 14.5 0.00 0.00 0.00 24 1007.4
20260504215504 24 250 3.2 14.5 0.00 0.00 0.00 24 1007.5
20260504215404 24 237 3.2 14.5 0.00 0.00 0.00 24 1007.5
20260504215305 24 219 3.2 14.5 0.00 0.00 0.00 25 1007.5
20260504215204 24 152 3.2 14.5 0.00 0.00 0.00 26 1007.5
20260504215104 24 165 3.2 11.3 0.00 0.00 0.00 26 1007.5
20260504215005 24 263 3.2 11.3 0.00 0.00 0.00 25 1007.6
20260504214803 24 225 3.2 11.3 0.00 0.00 0.00 25 1007.7
20260504214703 24 128 3.2 11.3 0.00 0.00 0.00 27 1007.7
20260504214603 24 236 3.2 11.3 0.00 0.00 0.00 25 1007.7
20260504214504 24 263 3.2 11.3 0.00 0.00 0.00 25 1007.7
20260504214403 24 177 3.2 11.3 0.00 0.00 0.00 27 1007.7
20260504214304 24 237 3.2 11.3 0.00 0.00 0.00 25 1007.6
20260504214204 24 211 3.2 12.9 0.00 0.00 0.00 27 1007.7
20260504214005 24 316 3.2 8.0 0.00 0.00 0.00 25 1007.7
20260504213904 24 151 3.2 8.0 0.00 0.00 0.00 25 1007.8
20260504213803 24 244 3.2 9.7 0.00 0.00 0.00 25 1007.8
20260504213704 25 163 3.2 8.0 0.00 0.00 0.00 25 1007.8
20260504213504 25 234 3.2 8.0 0.00 0.00 0.00 26 1007.9
20260504213403 25 122 3.2 8.0 0.00 0.00 0.00 25 1007.9
20260504213303 25 178 3.2 8.0 0.00 0.00 0.00 24 1007.9
20260504213204 25 75 3.2 8.0 0.00 0.00 0.00 24 1007.9
20260504213006 25 256 4.8 9.7 0.00 0.00 0.00 26 1008.0
20260504212904 25 148 3.2 9.7 0.00 0.00 0.00 26 1008.0
20260504212803 25 126 3.2 9.7 0.00 0.00 0.00 27 1008.0
20260504212603 25 238 3.2 9.7 0.00 0.00 0.00 27 1008.0
20260504212504 25 30 3.2 9.7 0.00 0.00 0.00 26 1008.0
20260504212404 25 229 3.2 11.3 0.00 0.00 0.00 25 1008.1
20260504212304 25 131 3.2 11.3 0.00 0.00 0.00 26 1008.0
20260504212204 25 179 3.2 11.3 0.00 0.00 0.00 25 1008.0
20260504212007 25 259 3.2 11.3 0.00 0.00 0.00 26 1008.0
20260504211905 25 186 3.2 11.3 0.00 0.00 0.00 25 1008.0
20260504211805 25 273 3.2 11.3 0.00 0.00 0.00 25 1008.1
20260504211605 25 214 3.2 11.3 0.00 0.00 0.00 25 1008.1
20260504211505 25 128 3.2 11.3 0.00 0.00 0.00 26 1008.1
20260504211404 25 177 3.2 11.3 0.00 0.00 0.00 25 1008.1
20260504211303 25 267 3.2 11.3 0.00 0.00 0.00 25 1008.1
20260504211203 25 254 3.2 11.3 0.00 0.00 0.00 27 1008.1
20260504211104 24 153 3.2 11.3 0.00 0.00 0.00 27 1008.1
20260504211004 24 229 3.2 11.3 0.00 0.00 0.00 27 1008.1
20260504210803 24 238 3.2 11.3 0.00 0.00 0.00 27 1008.1
20260504210704 24 261 3.2 12.9 0.00 0.00 0.00 27 1008.1
20260504210604 24 163 3.2 9.7 0.00 0.00 0.00 27 1008.2
20260504210504 24 227 3.2 9.7 0.00 0.00 0.00 24 1008.1
20260504210007 24 287 4.8 12.9 0.00 0.00 0.00 26 1008.2
20260504205904 24 238 4.8 12.9 0.00 0.00 0.00 27 1008.1
20260504205705 24 248 3.2 12.9 0.00 0.00 0.00 25 1008.1
20260504205505 25 224 3.2 12.9 0.00 0.00 0.00 25 1008.2
20260504205403 25 282 3.2 12.9 0.00 0.00 0.00 26 1008.3
20260504205304 25 263 3.2 11.3 0.00 0.00 0.00 27 1008.3
20260504205204 25 143 3.2 11.3 0.00 0.00 0.00 27 1008.3
20260504205103 25 257 3.2 11.3 0.00 0.00 0.00 26 1008.2
20260504205006 25 86 3.2 11.3 0.00 0.00 0.00 25 1008.1
20260504204804 24 244 3.2 11.3 0.00 0.00 0.00 26 1008.2
20260504204703 24 201 3.2 9.7 0.00 0.00 0.00 25 1008.3
20260504204603 24 183 4.8 9.7 0.00 0.00 0.00 25 1008.3
20260504204505 24 153 3.2 9.7 0.00 0.00 0.00 26 1008.3
20260504204404 25 234 3.2 12.9 0.00 0.00 0.00 25 1008.3
20260504204303 24 253 4.8 12.9 0.00 0.00 0.00 28 1008.3
20260504204203 24 211 4.8 12.9 0.00 0.00 0.00 28 1008.3
20260504204104 24 265 3.2 12.9 0.00 0.00 0.00 27 1008.4
20260504204005 24 137 3.2 12.9 0.00 0.00 0.00 27 1008.3
20260504203803 24 240 3.2 12.9 0.00 0.00 0.00 27 1008.4
20260504203604 24 257 3.2 12.9 0.00 0.00 0.00 29 1008.4
20260504203504 24 245 3.2 12.9 0.00 0.00 0.00 26 1008.4
20260504203403 24 131 3.2 12.9 0.00 0.00 0.00 26 1008.4
20260504203304 24 217 3.2 12.9 0.00 0.00 0.00 27 1008.3
20260504203203 24 275 3.2 8.0 0.00 0.00 0.00 26 1008.4
20260504203005 25 17 3.2 11.3 0.00 0.00 0.00 24 1008.4
20260504202904 25 333 3.2 11.3 0.00 0.00 0.00 25 1008.4
20260504202803 25 138 3.2 11.3 0.00 0.00 0.00 26 1008.4
20260504202704 25 150 3.2 11.3 0.00 0.00 0.00 26 1008.5
20260504202604 25 93 3.2 11.3 0.00 0.00 0.00 26 1008.4
20260504202504 24 283 3.2 11.3 0.00 0.00 0.00 27 1008.5
20260504202404 24 142 3.2 11.3 0.00 0.00 0.00 28 1008.5
20260504202305 24 211 3.2 11.3 0.00 0.00 0.00 28 1008.5
20260504202205 24 343 3.2 11.3 0.00 0.00 0.00 27 1008.5
20260504202104 24 241 3.2 11.3 0.00 0.00 0.00 25 1008.5
20260504202006 24 316 3.2 11.3 0.00 0.00 0.00 28 1008.5
20260504201804 24 225 3.2 11.3 0.00 0.00 0.00 26 1008.5
20260504201704 24 265 3.2 11.3 0.00 0.00 0.00 28 1008.5
20260504201604 24 304 3.2 11.3 0.00 0.00 0.00 27 1008.6
20260504201505 24 231 3.2 11.3 0.00 0.00 0.00 26 1008.5
20260504201403 24 229 3.2 11.3 0.00 0.00 0.00 25 1008.6
20260504201304 24 319 3.2 11.3 0.00 0.00 0.00 25 1008.6
20260504201203 24 304 3.2 11.3 0.00 0.00 0.00 27 1008.6
20260504201103 24 244 3.2 11.3 0.00 0.00 0.00 27 1008.6
20260504200903 24 216 3.2 11.3 0.00 0.00 0.00 26 1008.6
20260504200803 23 13 4.8 14.5 0.00 0.00 0.00 26 1008.7
20260504200703 23 343 4.8 14.5 0.00 0.00 0.00 26 1008.6
20260504200403 23 236 4.8 14.5 0.00 0.00 0.00 26 1008.7
20260504200303 23 246 4.8 14.5 0.00 0.00 0.00 25 1008.8
20260504200205 23 234 4.8 14.5 0.00 0.00 0.00 27 1008.8
20260504195903 24 242 3.2 9.7 0.00 0.00 0.00 25 1008.7
20260504195703 24 134 3.2 8.0 0.00 0.00 0.00 28 1008.7
20260504195604 24 227 4.8 14.5 0.00 0.00 0.00 30 1008.7
20260504195504 23 348 4.8 14.5 0.00 0.00 0.00 30 1008.8
20260504195403 23 269 4.8 14.5 0.00 0.00 0.00 27 1008.7
20260504195203 23 287 4.8 14.5 0.00 0.00 0.00 27 1008.7
20260504195104 23 130 4.8 14.5 0.00 0.00 0.00 27 1008.6
20260504195003 23 214 4.8 14.5 0.00 0.00 0.00 29 1008.7
20260504194603 24 199 3.2 14.5 0.00 0.00 0.00 29 1008.8
20260504194504 24 269 3.2 11.3 0.00 0.00 0.00 27 1008.7
20260504194403 24 232 3.2 11.3 0.00 0.00 0.00 28 1008.8
20260504194304 25 209 3.2 11.3 0.00 0.00 0.00 28 1008.8
20260504194204 25 261 3.2 6.4 0.00 0.00 0.00 31 1008.8
20260504194104 25 228 3.2 6.4 0.00 0.00 0.00 28 1008.8
20260504194005 25 134 3.2 8.0 0.00 0.00 0.00 29 1008.8
20260504193903 25 279 3.2 9.7 0.00 0.00 0.00 31 1008.9
20260504193804 24 280 3.2 9.7 0.00 0.00 0.00 30 1009.0
20260504193704 24 63 3.2 12.9 0.00 0.00 0.00 29 1008.9
20260504193605 24 134 3.2 12.9 0.00 0.00 0.00 29 1009.0
20260504193403 24 148 3.2 12.9 0.00 0.00 0.00 31 1009.0
20260504193204 24 256 3.2 12.9 0.00 0.00 0.00 31 1009.1
20260504193103 24 221 4.8 12.9 0.00 0.00 0.00 30 1009.0
20260504193005 24 205 4.8 12.9 0.00 0.00 0.00 32 1009.1
20260504192904 24 188 4.8 12.9 0.00 0.00 0.00 31 1009.1
20260504192803 24 283 3.2 11.3 0.00 0.00 0.00 31 1009.1
20260504192703 24 77 3.2 11.3 0.00 0.00 0.00 30 1009.1
20260504192504 23 152 3.2 11.3 0.00 0.00 0.00 33 1008.9
20260504192404 23 317 3.2 11.3 0.00 0.00 0.00 29 1009.0
20260504192304 23 343 3.2 11.3 0.00 0.00 0.00 30 1009.1
20260504192203 23 235 3.2 11.3 0.00 0.00 0.00 30 1009.2
20260504192103 24 252 3.2 9.7 0.00 0.00 0.00 30 1009.1
20260504191903 24 186 3.2 11.3 0.00 0.00 0.00 30 1009.1
20260504191803 24 300 3.2 11.3 0.00 0.00 0.00 30 1009.1
20260504191702 24 296 3.2 12.9 0.00 0.00 0.00 30 1009.1
20260504191604 24 244 3.2 11.3 0.00 0.00 0.00 29 1009.1
20260504191503 24 263 3.2 11.3 0.00 0.00 0.00 31 1009.1
20260504191303 24 184 4.8 11.3 0.00 0.00 0.00 30 1009.2
20260504191203 24 139 3.2 11.3 0.00 0.00 0.00 32 1009.1
20260504191103 24 142 3.2 11.3 0.00 0.00 0.00 30 1009.2
20260504191005 24 261 3.2 11.3 0.00 0.00 0.00 29 1009.1
20260504190703 24 248 3.2 9.7 0.00 0.00 0.00 32 1009.2
20260504190604 24 224 3.2 9.7 0.00 0.00 0.00 31 1009.1
20260504190504 23 158 3.2 9.7 0.00 0.00 0.00 32 1009.2
20260504190304 23 187 3.2 9.7 0.00 0.00 0.00 29 1009.2
20260504190204 23 281 3.2 9.7 0.00 0.00 0.00 31 1009.2
20260504190104 23 49 3.2 9.7 0.00 0.00 0.00 28 1009.2
20260504190005 24 47 3.2 9.7 0.00 0.00 0.00 29 1009.3
20260504185804 24 104 1.6 9.7 0.00 0.00 0.00 28 1009.3
20260504185704 24 245 1.6 9.7 0.00 0.00 0.00 29 1009.4
20260504185603 24 238 1.6 9.7 0.00 0.00 0.00 31 1009.4
20260504185503 24 247 1.6 9.7 0.00 0.00 0.00 27 1009.4
20260504185404 24 169 1.6 9.7 0.00 0.00 0.00 28 1009.4
20260504185304 24 142 1.6 9.7 0.00 0.00 0.00 29 1009.4
20260504185203 24 94 1.6 9.7 0.00 0.00 0.00 29 1009.4
20260504185004 24 154 1.6 8.0 0.00 0.00 0.00 31 1009.4
20260504184804 24 196 3.2 8.0 0.00 0.00 0.00 29 1009.4
20260504184703 24 273 1.6 8.0 0.00 0.00 0.00 29 1009.4
20260504184504 24 39 1.6 8.0 0.00 0.00 0.00 28 1009.4
20260504184406 24 63 1.6 8.0 0.00 0.00 0.00 29 1009.4
20260504184305 24 38 1.6 8.0 0.00 0.00 0.00 29 1009.4
20260504184205 23 136 1.6 8.0 0.00 0.00 0.00 29 1009.4
20260504184105 23 161 1.6 8.0 0.00 0.00 0.00 29 1009.4
20260504183905 23 163 1.6 6.4 0.00 0.00 0.00 28 1009.4
20260504183804 23 137 1.6 6.4 0.00 0.00 0.00 31 1009.4
20260504183704 23 265 1.6 9.7 0.00 0.00 0.00 29 1009.4
20260504183604 23 314 1.6 9.7 0.00 0.00 0.00 26 1009.5
20260504183504 23 313 3.2 9.7 0.00 0.00 0.00 25 1009.5
20260504183404 23 260 3.2 11.3 0.00 0.00 0.00 26 1009.5
20260504183204 23 238 3.2 11.3 0.00 0.00 0.00 26 1009.5
20260504183006 23 149 3.2 11.3 0.00 0.00 0.00 27 1009.5
20260504182703 23 150 3.2 11.3 0.00 0.00 0.00 28 1009.6
20260504182503 23 269 1.6 8.0 0.00 0.00 0.00 28 1009.6
20260504182404 23 266 3.2 8.0 0.00 0.00 0.00 28 1009.6
20260504182304 23 194 1.6 8.0 0.00 0.00 0.00 29 1009.6
20260504182204 23 144 3.2 8.0 0.00 0.00 0.00 28 1009.8
20260504182101 23 225 3.2 11.3 0.00 0.00 0.00 30 1009.7
20260504182003 23 128 3.2 11.3 0.00 0.00 0.00 28 1009.8
20260504181952 23 128 3.2 11.3 0.00 0.00 0.00 28 1009.8
20260504181842 23 261 3.2 11.3 0.00 0.00 0.00 29 1009.7
20260504181731 23 49 3.2 11.3 0.00 0.00 0.00 30 1009.7
20260504181622 23 81 3.2 11.3 0.00 0.00 0.00 32 1009.8
20260504181512 23 136 3.2 11.3 0.00 0.00 0.00 30 1009.8
20260504181311 23 130 3.2 11.3 0.00 0.00 0.00 29 1009.8
20260504181201 23 105 3.2 9.7 0.00 0.00 0.00 30 1009.8
20260504181102 23 234 3.2 9.7 0.00 0.00 0.00 29 1009.9
20260504181003 23 115 3.2 9.7 0.00 0.00 0.00 31 1009.9
20260504180941 23 139 1.6 9.7 0.00 0.00 0.00 31 1009.8
20260504180831 23 92 3.2 9.7 0.00 0.00 0.00 30 1009.9
20260504180611 23 139 3.2 9.7 0.00 0.00 0.00 29 1009.9
20260504180201 23 143 1.6 9.7 0.00 0.00 0.00 30 1009.9
20260504180044 23 169 3.2 6.4 0.00 0.00 0.00 33 1009.9
20260504175931 23 137 3.2 6.4 0.00 0.00 0.00 31 1009.9
20260504175821 23 188 3.2 6.4 0.00 0.00 0.00 33 1009.9
20260504175711 22 82 4.8 11.3 0.00 0.00 0.00 32 1009.8
20260504175601 22 73 4.8 9.7 0.00 0.00 0.00 33 1009.9
20260504175502 22 103 4.8 9.7 0.00 0.00 0.00 32 1009.9
20260504175304 22 151 4.8 9.7 0.00 0.00 0.00 31 1010.0
20260504175242 22 171 4.8 9.7 0.00 0.00 0.00 31 1010.0
20260504175030 22 171 4.8 14.5 0.00 0.00 0.00 34 1010.0
20260504174913 22 116 4.8 14.5 0.00 0.00 0.00 32 1010.0
20260504174603 22 90 3.2 14.5 0.00 0.00 0.00 33 1009.9
20260504174403 22 76 3.2 14.5 0.00 0.00 0.00 33 1010.0
20260504174303 22 105 3.2 14.5 0.00 0.00 0.00 33 1010.0
20260504174204 22 72 3.2 14.5 0.00 0.00 0.00 33 1010.0
20260504174101 22 108 3.2 14.5 0.00 0.00 0.00 32 1010.0
20260504173900 22 86 3.2 11.3 0.00 0.00 0.00 32 1010.0
20260504173842 22 79 3.2 11.3 0.00 0.00 0.00 31 1010.0
20260504173732 22 144 3.2 11.3 0.00 0.00 0.00 31 1010.0
20260504173621 22 166 1.6 11.3 0.00 0.00 0.00 33 1010.0
20260504173511 22 259 1.6 11.3 0.00 0.00 0.00 33 1010.0
20260504173401 22 91 1.6 11.3 0.00 0.00 0.00 34 1010.1
20260504173302 22 120 1.6 11.3 0.00 0.00 0.00 33 1010.1
20260504173202 22 242 1.6 11.3 0.00 0.00 0.00 32 1010.1
20260504173141 22 144 1.6 6.4 0.00 0.00 0.00 34 1010.0
20260504173004 22 128 1.6 6.4 0.00 0.00 0.00 34 1010.1
20260504172902 22 228 1.6 6.4 0.00 0.00 0.00 34 1010.1
20260504172702 22 297 1.6 6.4 0.00 0.00 0.00 31 1010.2
20260504172502 22 248 1.6 8.0 0.00 0.00 0.00 32 1010.1
20260504172401 22 201 3.2 8.0 0.00 0.00 0.00 34 1010.1
20260504172201 22 112 3.2 8.0 0.00 0.00 0.00 35 1010.2
20260504172101 22 134 3.2 8.0 0.00 0.00 0.00 35 1010.2
20260504172050 22 190 3.2 8.0 0.00 0.00 0.00 36 1010.2
20260504171829 22 136 3.2 8.0 0.00 0.00 0.00 34 1010.3
20260504171719 22 39 4.8 8.0 0.00 0.00 0.00 34 1010.1
20260504171609 22 84 4.8 14.5 0.00 0.00 0.00 34 1010.2
20260504171500 22 77 4.8 14.5 0.00 0.00 0.00 33 1010.2
20260504171400 22 119 4.8 14.5 0.00 0.00 0.00 33 1010.2
20260504171349 22 128 4.8 14.5 0.00 0.00 0.00 33 1010.2
20260504171239 22 58 4.8 14.5 0.00 0.00 0.00 35 1010.2
20260504170804 22 82 3.2 14.5 0.00 0.00 0.00 34 1010.2
20260504170727 22 74 3.2 9.7 0.00 0.00 0.00 34 1010.1
20260504170627 22 49 1.6 8.0 0.00 0.00 0.00 37 1010.3
20260504170526 22 79 1.6 8.0 0.00 0.00 0.00 35 1010.2
20260504170327 22 215 1.6 8.0 0.00 0.00 0.00 36 1010.2
20260504170128 22 103 1.6 8.0 0.00 0.00 0.00 36 1010.3
20260504160403 20 61 4.8 12.9 0.00 0.00 0.00 40 1010.2
20260504160303 20 22 4.8 12.9 0.00 0.00 0.00 39 1010.1
20260504160203 20 86 4.8 12.9 0.00 0.00 0.00 39 1010.3
20260504151002 18 91 3.2 12.9 0.00 0.00 0.00 42 1010.5
20260504150801 18 67 3.2 12.9 0.00 0.00 0.00 41 1010.5
20260504150701 18 127 3.2 11.3 0.00 0.00 0.00 42 1010.5
20260504150640 18 90 3.2 8.0 0.00 0.00 0.00 43 1010.5
20260504150532 18 96 3.2 8.0 0.00 0.00 0.00 42 1010.4
20260504150425 18 95 3.2 8.0 0.00 0.00 0.00 42 1010.5
20260504150203 19 66 1.6 8.0 0.00 0.00 0.00 42 1010.5
20260504150135 18 108 3.2 8.0 0.00 0.00 0.00 42 1010.4
20260504141206 17 108 0.0 4.8 0.00 0.00 0.00 45 1010.6
20260504141004 17 156 1.6 4.8 0.00 0.00 0.00 46 1010.5
20260504140904 17 39 1.6 4.8 0.00 0.00 0.00 45 1010.6
20260504140804 17 40 1.6 4.8 0.00 0.00 0.00 46 1010.6
20260504140704 17 80 1.6 4.8 0.00 0.00 0.00 45 1010.6
20260504140604 17 67 1.6 4.8 0.00 0.00 0.00 46 1010.6
20260504140503 17 84 1.6 4.8 0.00 0.00 0.00 46 1010.6
20260504140404 17 86 1.6 4.8 0.00 0.00 0.00 46 1010.6
20260504140204 16 80 1.6 4.8 0.00 0.00 0.00 46 1010.5
20260504140104 16 77 1.6 4.8 0.00 0.00 0.00 46 1010.6
20260504130803 13 91 1.6 6.4 0.00 0.00 0.00 46 1010.5
20260504130703 13 97 1.6 6.4 0.00 0.00 0.00 45 1010.6
20260504130603 13 79 1.6 6.4 0.00 0.00 0.00 45 1010.5
20260504130502 13 76 1.6 6.4 0.00 0.00 0.00 46 1010.5
20260504130203 13 88 1.6 6.4 0.00 0.00 0.00 46 1010.6
20260504130103 13 105 1.6 6.4 0.00 0.00 0.00 46 1010.6
20260504120303 10 71 0.0 0.0 0.00 0.00 0.00 54 1010.6
20260504110703 12 103 0.0 1.6 0.00 0.00 0.00 48 1010.7
20260504110503 12 103 0.0 1.6 0.00 0.00 0.00 48 1010.8
20260504110403 12 103 0.0 1.6 0.00 0.00 0.00 48 1010.7
20260504110303 12 103 0.0 1.6 0.00 0.00 0.00 47 1010.8
20260504110211 12 103 0.0 1.6 0.00 0.00 0.00 47 1010.7
20260504100524 11 105 0.0 0.0 0.00 0.00 0.00 51 1010.5
20260504100324 11 105 0.0 0.0 0.00 0.00 0.00 50 1010.5
20260504100224 12 105 0.0 0.0 0.00 0.00 0.00 50 1010.5
20260504100131 12 105 0.0 0.0 0.00 0.00 0.00 50 1010.6
20260504082004 11 271 0.0 0.0 0.00 0.00 0.00 44 1009.8
20260504081903 11 271 0.0 0.0 0.00 0.00 0.00 44 1009.7
20260504081803 11 271 0.0 0.0 0.00 0.00 0.00 44 1009.8
20260504081702 11 271 0.0 0.0 0.00 0.00 0.00 43 1009.8
20260504081503 11 270 0.0 0.0 0.00 0.00 0.00 43 1009.8
20260504081404 11 271 0.0 0.0 0.00 0.00 0.00 44 1009.7
20260504081304 11 270 0.0 0.0 0.00 0.00 0.00 44 1009.8
20260504081203 11 271 0.0 0.0 0.00 0.00 0.00 43 1009.8
20260504081103 11 271 0.0 0.0 0.00 0.00 0.00 43 1009.8
20260504081004 12 271 0.0 0.0 0.00 0.00 0.00 42 1009.8
20260504080904 12 271 0.0 0.0 0.00 0.00 0.00 42 1009.7
20260504080803 12 271 0.0 0.0 0.00 0.00 0.00 42 1009.8
20260504080704 12 271 0.0 0.0 0.00 0.00 0.00 41 1009.8
20260504080603 12 271 0.0 0.0 0.00 0.00 0.00 41 1009.8
20260504080404 12 270 0.0 0.0 0.00 0.00 0.00 41 1009.8
20260504080303 12 271 0.0 0.0 0.00 0.00 0.00 41 1009.8
20260504080203 12 270 0.0 1.6 0.00 0.00 0.00 41 1009.9
20260504070339 13 46 0.0 3.2 0.00 0.00 0.00 36 1010.0
20260504070119 13 31 0.0 1.6 0.00 0.00 0.00 37 1009.9